contact:dominique.lefevre@mio.osupytheas.fr, maurice.libes@osupytheas.fr, didier.mallarino@osupytheas.fr
Project:EMSO http://www.emso-fr.org/EMSO-France
Depth: 2436.0 m
Title:EMSO Ligure Ouest : Data MII capteur MICROCAT
DateTime_Computer,Latitude,Longitude,Temperature,Conductivity,Pressure,DateTime_Instrument
DateTime_Computer,Latitude,Longitude,degC,S m-1,dbar,DateTime_Instrument
2021-06-12T00:01:45Z,42.805,6.029,13.2984,4.59993,2470.413,2021-6-12T02:02:58Z
2021-06-12T00:04:48Z,42.805,6.029,13.2983,4.59997,2470.39,2021-6-12T02:06:01Z
2021-06-12T00:07:51Z,42.805,6.029,13.2983,4.59992,2470.39,2021-6-12T02:09:04Z
2021-06-12T00:10:54Z,42.805,6.029,13.2985,4.59993,2470.39,2021-6-12T02:12:08Z
2021-06-12T00:13:57Z,42.805,6.029,13.2982,4.59997,2470.427,2021-6-12T02:15:11Z
2021-06-12T00:17:01Z,42.805,6.029,13.2982,4.59996,2470.427,2021-6-12T02:18:14Z
2021-06-12T00:20:04Z,42.805,6.029,13.2984,4.59995,2470.376,2021-6-12T02:21:17Z
2021-06-12T00:23:07Z,42.805,6.029,13.2982,4.59995,2470.39,2021-6-12T02:24:20Z
2021-06-12T00:26:10Z,42.805,6.029,13.2986,4.59993,2470.413,2021-6-12T02:27:23Z
2021-06-12T00:29:13Z,42.805,6.029,13.2984,4.59998,2470.39,2021-6-12T02:30:26Z
2021-06-12T00:32:16Z,42.805,6.029,13.2986,4.59993,2470.366,2021-6-12T02:33:29Z
2021-06-12T00:35:19Z,42.805,6.029,13.2984,4.60000,2470.404,2021-6-12T02:36:33Z
2021-06-12T00:38:22Z,42.805,6.029,13.2983,4.59993,2470.39,2021-6-12T02:39:36Z
2021-06-12T00:41:26Z,42.805,6.029,13.2985,4.59996,2470.366,2021-6-12T02:42:39Z
2021-06-12T00:44:29Z,42.805,6.029,13.2982,4.59994,2470.39,2021-6-12T02:45:42Z
2021-06-12T00:47:32Z,42.805,6.029,13.2984,4.59996,2470.413,2021-6-12T02:48:45Z
2021-06-12T00:50:36Z,42.805,6.029,13.2986,4.59999,2470.404,2021-6-12T02:51:49Z
2021-06-12T00:53:39Z,42.805,6.029,13.2983,4.59998,2470.366,2021-6-12T02:54:52Z
2021-06-12T00:56:42Z,42.805,6.029,13.2986,4.59996,2470.38,2021-6-12T02:57:55Z
2021-06-12T00:59:45Z,42.805,6.029,13.2987,4.59996,2470.357,2021-6-12T03:00:58Z
2021-06-12T01:02:48Z,42.805,6.029,13.2986,4.59999,2470.366,2021-6-12T03:04:01Z
2021-06-12T01:05:51Z,42.805,6.029,13.2984,4.59995,2470.366,2021-6-12T03:07:05Z
2021-06-12T01:08:54Z,42.805,6.029,13.2984,4.59991,2470.38,2021-6-12T03:10:08Z
2021-06-12T01:11:58Z,42.805,6.029,13.2985,4.59993,2470.366,2021-6-12T03:13:11Z
2021-06-12T01:15:01Z,42.805,6.029,13.2983,4.59994,2470.38,2021-6-12T03:16:14Z
2021-06-12T01:18:04Z,42.805,6.029,13.2985,4.59992,2470.366,2021-6-12T03:19:17Z
2021-06-12T01:21:07Z,42.805,6.029,13.2986,4.59992,2470.39,2021-6-12T03:22:20Z
2021-06-12T01:24:10Z,42.805,6.029,13.2982,4.59998,2470.38,2021-6-12T03:25:23Z
2021-06-12T01:27:13Z,42.805,6.029,13.2983,4.59996,2470.334,2021-6-12T03:28:26Z
2021-06-12T01:30:16Z,42.805,6.029,13.2983,4.59996,2470.38,2021-6-12T03:31:29Z
2021-06-12T01:33:19Z,42.805,6.029,13.2983,4.59997,2470.366,2021-6-12T03:34:33Z
2021-06-12T01:36:22Z,42.805,6.029,13.2986,4.59993,2470.38,2021-6-12T03:37:36Z
2021-06-12T01:39:26Z,42.805,6.029,13.2983,4.59996,2470.33,2021-6-12T03:40:39Z
2021-06-12T01:42:29Z,42.805,6.029,13.2984,4.59994,2470.38,2021-6-12T03:43:42Z
2021-06-12T01:45:32Z,42.805,6.029,13.2983,4.59999,2470.343,2021-6-12T03:46:45Z
2021-06-12T01:48:35Z,42.805,6.029,13.2984,4.60000,2470.343,2021-6-12T03:49:48Z
2021-06-12T01:51:38Z,42.805,6.029,13.2987,4.59995,2470.366,2021-6-12T03:52:51Z
2021-06-12T01:54:41Z,42.805,6.029,13.2984,4.59997,2470.357,2021-6-12T03:55:54Z
2021-06-12T01:57:44Z,42.805,6.029,13.2986,4.59996,2470.366,2021-6-12T03:58:58Z
2021-06-12T02:00:47Z,42.805,6.029,13.2984,4.59992,2470.38,2021-6-12T04:02:01Z
2021-06-12T02:03:51Z,42.805,6.029,13.2983,4.59996,2470.343,2021-6-12T04:05:04Z
2021-06-12T02:06:54Z,42.805,6.029,13.2987,4.59992,2470.343,2021-6-12T04:08:07Z
2021-06-12T02:09:57Z,42.805,6.029,13.2983,4.59993,2470.343,2021-6-12T04:11:10Z
2021-06-12T02:13:00Z,42.805,6.029,13.2985,4.59994,2470.366,2021-6-12T04:14:13Z
2021-06-12T02:16:03Z,42.805,6.029,13.2985,4.59996,2470.343,2021-6-12T04:17:16Z
2021-06-12T02:19:06Z,42.805,6.029,13.2986,4.59995,2470.366,2021-6-12T04:20:19Z
2021-06-12T02:22:09Z,42.805,6.029,13.2981,4.59996,2470.38,2021-6-12T04:23:23Z
2021-06-12T02:25:12Z,42.805,6.029,13.2983,4.59993,2470.343,2021-6-12T04:26:26Z
2021-06-12T02:28:16Z,42.805,6.029,13.2986,4.59994,2470.343,2021-6-12T04:29:29Z
2021-06-12T02:31:19Z,42.805,6.029,13.2987,4.59995,2470.366,2021-6-12T04:32:32Z
2021-06-12T02:34:22Z,42.805,6.029,13.2989,4.59997,2470.343,2021-6-12T04:35:35Z
2021-06-12T02:37:25Z,42.805,6.029,13.2985,4.59996,2470.366,2021-6-12T04:38:38Z
2021-06-12T02:40:28Z,42.805,6.029,13.2983,4.59996,2470.366,2021-6-12T04:41:41Z
2021-06-12T02:43:31Z,42.805,6.029,13.2983,4.59998,2470.366,2021-6-12T04:44:44Z
2021-06-12T02:46:34Z,42.805,6.029,13.2983,4.59994,2470.39,2021-6-12T04:47:48Z
2021-06-12T02:49:37Z,42.805,6.029,13.2983,4.59995,2470.366,2021-6-12T04:50:51Z
2021-06-12T02:52:41Z,42.805,6.029,13.2983,4.59994,2470.39,2021-6-12T04:53:54Z
2021-06-12T02:55:44Z,42.805,6.029,13.2990,4.59997,2470.334,2021-6-12T04:56:57Z
2021-06-12T02:58:47Z,42.805,6.029,13.2984,4.59996,2470.343,2021-6-12T05:00:00Z
2021-06-12T03:01:50Z,42.805,6.029,13.2984,4.59996,2470.39,2021-6-12T05:03:03Z
2021-06-12T03:04:53Z,42.805,6.029,13.2986,4.59996,2470.366,2021-6-12T05:06:06Z
2021-06-12T03:07:56Z,42.805,6.029,13.2983,4.59995,2470.357,2021-6-12T05:09:09Z
2021-06-12T03:10:59Z,42.805,6.029,13.2983,4.59995,2470.343,2021-6-12T05:12:13Z
2021-06-12T03:14:02Z,42.805,6.029,13.2979,4.59994,2470.32,2021-6-12T05:15:16Z
2021-06-12T03:17:06Z,42.805,6.029,13.2987,4.59996,2470.32,2021-6-12T05:18:19Z
2021-06-12T03:20:09Z,42.805,6.029,13.2985,4.59993,2470.366,2021-6-12T05:21:22Z
2021-06-12T03:23:12Z,42.805,6.029,13.2984,4.59996,2470.366,2021-6-12T05:24:25Z
2021-06-12T03:26:15Z,42.805,6.029,13.2982,4.59997,2470.343,2021-6-12T05:27:28Z
2021-06-12T03:29:18Z,42.805,6.029,13.2983,4.59997,2470.38,2021-6-12T05:30:31Z
2021-06-12T03:32:21Z,42.805,6.029,13.2986,4.59994,2470.366,2021-6-12T05:33:34Z
2021-06-12T03:35:24Z,42.805,6.029,13.2983,4.59995,2470.343,2021-6-12T05:36:38Z
2021-06-12T03:38:27Z,42.805,6.029,13.2987,4.59997,2470.366,2021-6-12T05:39:41Z
2021-06-12T03:41:31Z,42.805,6.029,13.2983,4.59994,2470.343,2021-6-12T05:42:44Z
2021-06-12T03:44:34Z,42.805,6.029,13.2983,4.59993,2470.343,2021-6-12T05:45:47Z
2021-06-12T03:47:37Z,42.805,6.029,13.2985,4.59996,2470.343,2021-6-12T05:48:50Z
2021-06-12T03:50:40Z,42.805,6.029,13.2987,4.59997,2470.366,2021-6-12T05:51:53Z
2021-06-12T03:53:43Z,42.805,6.029,13.2986,4.59997,2470.343,2021-6-12T05:54:56Z
2021-06-12T03:56:46Z,42.805,6.029,13.2986,4.59997,2470.357,2021-6-12T05:57:59Z
2021-06-12T03:59:49Z,42.805,6.029,13.2984,4.59998,2470.334,2021-6-12T06:01:03Z
2021-06-12T04:02:52Z,42.805,6.029,13.2984,4.59996,2470.366,2021-6-12T06:04:06Z
2021-06-12T04:05:56Z,42.805,6.029,13.2986,4.59996,2470.366,2021-6-12T06:07:09Z
2021-06-12T04:08:59Z,42.805,6.029,13.2986,4.59996,2470.343,2021-6-12T06:10:12Z
2021-06-12T04:12:02Z,42.805,6.029,13.2985,4.59997,2470.366,2021-6-12T06:13:15Z
2021-06-12T04:15:05Z,42.805,6.029,13.2983,4.59996,2470.357,2021-6-12T06:16:18Z
2021-06-12T04:18:08Z,42.805,6.029,13.2983,4.59996,2470.343,2021-6-12T06:19:21Z
2021-06-12T04:21:11Z,42.805,6.029,13.2983,4.59995,2470.366,2021-6-12T06:22:24Z
2021-06-12T04:24:14Z,42.805,6.029,13.2984,4.59995,2470.343,2021-6-12T06:25:28Z
2021-06-12T04:27:17Z,42.805,6.029,13.2983,4.59996,2470.366,2021-6-12T06:28:31Z
2021-06-12T04:30:21Z,42.805,6.029,13.2985,4.59997,2470.357,2021-6-12T06:31:34Z
2021-06-12T04:33:24Z,42.805,6.029,13.2986,4.59994,2470.413,2021-6-12T06:34:37Z
2021-06-12T04:36:27Z,42.805,6.029,13.2982,4.59995,2470.404,2021-6-12T06:37:40Z
2021-06-12T04:39:30Z,42.805,6.029,13.2989,4.59999,2470.366,2021-6-12T06:40:43Z
2021-06-12T04:42:33Z,42.805,6.029,13.2985,4.59996,2470.38,2021-6-12T06:43:46Z
2021-06-12T04:45:36Z,42.805,6.029,13.2983,4.59997,2470.366,2021-6-12T06:46:49Z
2021-06-12T04:48:39Z,42.805,6.029,13.2985,4.59996,2470.404,2021-6-12T06:49:53Z
2021-06-12T04:51:42Z,42.805,6.029,13.2983,4.59994,2470.38,2021-6-12T06:52:56Z
2021-06-12T04:54:46Z,42.805,6.029,13.2989,4.59996,2470.366,2021-6-12T06:55:59Z
2021-06-12T04:57:49Z,42.805,6.029,13.2986,4.59999,2470.366,2021-6-12T06:59:02Z
2021-06-12T05:00:52Z,42.805,6.029,13.2987,4.59997,2470.366,2021-6-12T07:02:05Z
2021-06-12T05:03:55Z,42.805,6.029,13.2989,4.59996,2470.366,2021-6-12T07:05:08Z
2021-06-12T05:06:58Z,42.805,6.029,13.2982,4.59994,2470.39,2021-6-12T07:08:11Z
2021-06-12T05:10:01Z,42.805,6.029,13.2988,4.59995,2470.366,2021-6-12T07:11:14Z
2021-06-12T05:13:04Z,42.805,6.029,13.2986,4.59997,2470.404,2021-6-12T07:14:18Z
2021-06-12T05:16:07Z,42.805,6.029,13.2982,4.59999,2470.366,2021-6-12T07:17:21Z
2021-06-12T05:19:11Z,42.805,6.029,13.2987,4.59998,2470.39,2021-6-12T07:20:24Z
2021-06-12T05:22:14Z,42.805,6.029,13.2983,4.59999,2470.404,2021-6-12T07:23:27Z
2021-06-12T05:25:17Z,42.805,6.029,13.2987,4.59996,2470.39,2021-6-12T07:26:30Z
2021-06-12T05:28:20Z,42.805,6.029,13.2985,4.59999,2470.39,2021-6-12T07:29:33Z
2021-06-12T05:31:23Z,42.805,6.029,13.2988,4.59996,2470.404,2021-6-12T07:32:36Z
2021-06-12T05:34:26Z,42.805,6.029,13.2983,4.59996,2470.39,2021-6-12T07:35:39Z
2021-06-12T05:37:29Z,42.805,6.029,13.2986,4.59996,2470.366,2021-6-12T07:38:43Z
2021-06-12T05:40:32Z,42.805,6.029,13.2986,4.59996,2470.366,2021-6-12T07:41:46Z
2021-06-12T05:43:35Z,42.805,6.029,13.2982,4.59999,2470.413,2021-6-12T07:44:49Z
2021-06-12T05:46:39Z,42.805,6.029,13.2983,4.59996,2470.39,2021-6-12T07:47:52Z
2021-06-12T05:49:42Z,42.805,6.029,13.2982,4.59998,2470.404,2021-6-12T07:50:55Z
2021-06-12T05:52:45Z,42.805,6.029,13.2985,4.59999,2470.39,2021-6-12T07:53:58Z
2021-06-12T05:55:48Z,42.805,6.029,13.2988,4.59996,2470.413,2021-6-12T07:57:01Z
2021-06-12T05:58:51Z,42.805,6.029,13.2984,4.59999,2470.39,2021-6-12T08:00:04Z
2021-06-12T06:01:54Z,42.805,6.029,13.2984,4.59997,2470.39,2021-6-12T08:03:08Z
2021-06-12T06:04:57Z,42.805,6.029,13.2986,4.59995,2470.413,2021-6-12T08:06:11Z
2021-06-12T06:08:00Z,42.805,6.029,13.2985,4.60002,2470.413,2021-6-12T08:09:14Z
2021-06-12T06:11:04Z,42.805,6.029,13.2986,4.59996,2470.413,2021-6-12T08:12:17Z
2021-06-12T06:14:07Z,42.805,6.029,13.2983,4.59996,2470.45,2021-6-12T08:15:20Z
2021-06-12T06:17:10Z,42.805,6.029,13.2988,4.60000,2470.427,2021-6-12T08:18:23Z
2021-06-12T06:20:13Z,42.805,6.029,13.2982,4.59996,2470.413,2021-6-12T08:21:26Z
2021-06-12T06:23:16Z,42.805,6.029,13.2987,4.59995,2470.427,2021-6-12T08:24:29Z
2021-06-12T06:26:19Z,42.805,6.029,13.2984,4.59997,2470.437,2021-6-12T08:27:32Z
2021-06-12T06:29:22Z,42.805,6.029,13.2982,4.59995,2470.427,2021-6-12T08:30:36Z
2021-06-12T06:32:25Z,42.805,6.029,13.2987,4.59997,2470.437,2021-6-12T08:33:39Z
2021-06-12T06:35:29Z,42.805,6.029,13.2986,4.59997,2470.413,2021-6-12T08:36:42Z
2021-06-12T06:38:32Z,42.805,6.029,13.2982,4.59997,2470.427,2021-6-12T08:39:45Z
2021-06-12T06:41:35Z,42.805,6.029,13.2983,4.59997,2470.437,2021-6-12T08:42:48Z
2021-06-12T06:44:38Z,42.805,6.029,13.2985,4.59996,2470.437,2021-6-12T08:45:51Z
2021-06-12T06:47:41Z,42.805,6.029,13.2985,4.59997,2470.437,2021-6-12T08:48:54Z
2021-06-12T06:50:44Z,42.805,6.029,13.2985,4.59998,2470.437,2021-6-12T08:51:57Z
2021-06-12T06:53:47Z,42.805,6.029,13.2982,4.59999,2470.45,2021-6-12T08:55:01Z
2021-06-12T06:56:50Z,42.805,6.029,13.2983,4.59996,2470.45,2021-6-12T08:58:04Z
2021-06-12T06:59:54Z,42.805,6.029,13.2982,4.59997,2470.437,2021-6-12T09:01:07Z
2021-06-12T07:02:57Z,42.805,6.029,13.2982,4.59998,2470.46,2021-6-12T09:04:10Z
2021-06-12T07:06:00Z,42.805,6.029,13.2980,4.59995,2470.46,2021-6-12T09:07:13Z
2021-06-12T07:09:03Z,42.805,6.029,13.2983,4.59997,2470.437,2021-6-12T09:10:16Z
2021-06-12T07:12:06Z,42.805,6.029,13.2984,4.59999,2470.46,2021-6-12T09:13:19Z
2021-06-12T07:15:09Z,42.805,6.029,13.2984,4.60003,2470.45,2021-6-12T09:16:22Z
2021-06-12T07:18:12Z,42.805,6.029,13.2986,4.60001,2470.474,2021-6-12T09:19:26Z
2021-06-12T07:21:15Z,42.805,6.029,13.2984,4.59999,2470.483,2021-6-12T09:22:29Z
2021-06-12T07:24:19Z,42.805,6.029,13.2985,4.60000,2470.45,2021-6-12T09:25:32Z
2021-06-12T07:27:22Z,42.805,6.029,13.2986,4.60009,2470.46,2021-6-12T09:28:35Z
2021-06-12T07:30:25Z,42.805,6.029,13.2987,4.60001,2470.46,2021-6-12T09:31:38Z
2021-06-12T07:33:28Z,42.805,6.029,13.2987,4.59999,2470.437,2021-6-12T09:34:41Z
2021-06-12T07:36:31Z,42.805,6.029,13.2985,4.59996,2470.46,2021-6-12T09:37:44Z
2021-06-12T07:39:34Z,42.805,6.029,13.2983,4.59999,2470.474,2021-6-12T09:40:47Z
2021-06-12T07:42:37Z,42.805,6.029,13.2986,4.59996,2470.45,2021-6-12T09:43:51Z
2021-06-12T07:45:40Z,42.805,6.029,13.2990,4.59998,2470.474,2021-6-12T09:46:54Z
2021-06-12T07:48:44Z,42.805,6.029,13.2986,4.60001,2470.45,2021-6-12T09:49:57Z
2021-06-12T07:51:47Z,42.805,6.029,13.2983,4.59995,2470.474,2021-6-12T09:53:00Z
2021-06-12T07:54:50Z,42.805,6.029,13.2986,4.59997,2470.46,2021-6-12T09:56:03Z
2021-06-12T07:57:53Z,42.805,6.029,13.2981,4.59997,2470.437,2021-6-12T09:59:06Z
2021-06-12T08:00:56Z,42.805,6.029,13.2985,4.59999,2470.437,2021-6-12T10:02:09Z
2021-06-12T08:03:59Z,42.805,6.029,13.2989,4.59995,2470.474,2021-6-12T10:05:12Z
2021-06-12T08:07:02Z,42.805,6.029,13.2983,4.59996,2470.483,2021-6-12T10:08:16Z
2021-06-12T08:10:05Z,42.805,6.029,13.2984,4.59996,2470.46,2021-6-12T10:11:19Z
2021-06-12T08:13:09Z,42.805,6.029,13.2983,4.59994,2470.46,2021-6-12T10:14:22Z
2021-06-12T08:16:12Z,42.805,6.029,13.2986,4.59999,2470.474,2021-6-12T10:17:25Z
2021-06-12T08:19:15Z,42.805,6.029,13.2982,4.60001,2470.474,2021-6-12T10:20:28Z
2021-06-12T08:22:18Z,42.805,6.029,13.2985,4.59996,2470.46,2021-6-12T10:23:31Z
2021-06-12T08:25:21Z,42.805,6.029,13.2984,4.59995,2470.474,2021-6-12T10:26:34Z
2021-06-12T08:28:24Z,42.805,6.029,13.2982,4.59997,2470.46,2021-6-12T10:29:37Z
2021-06-12T08:31:27Z,42.805,6.029,13.2985,4.59995,2470.45,2021-6-12T10:32:41Z
2021-06-12T08:34:30Z,42.805,6.029,13.2984,4.59996,2470.45,2021-6-12T10:35:44Z
2021-06-12T08:37:34Z,42.805,6.029,13.2986,4.59995,2470.46,2021-6-12T10:38:47Z
2021-06-12T08:40:37Z,42.805,6.029,13.2988,4.60001,2470.46,2021-6-12T10:41:50Z
2021-06-12T08:43:40Z,42.805,6.029,13.2985,4.59997,2470.45,2021-6-12T10:44:53Z
2021-06-12T08:46:43Z,42.805,6.029,13.2980,4.59993,2470.46,2021-6-12T10:47:56Z
2021-06-12T08:49:46Z,42.805,6.029,13.2985,4.59993,2470.474,2021-6-12T10:50:59Z
2021-06-12T08:52:49Z,42.805,6.029,13.2986,4.59994,2470.45,2021-6-12T10:54:03Z
2021-06-12T08:55:52Z,42.805,6.029,13.2982,4.59998,2470.46,2021-6-12T10:57:06Z
2021-06-12T08:58:55Z,42.805,6.029,13.2990,4.59998,2470.45,2021-6-12T11:00:09Z
2021-06-12T09:01:59Z,42.805,6.029,13.2985,4.59997,2470.46,2021-6-12T11:03:12Z
2021-06-12T09:05:02Z,42.805,6.029,13.2983,4.60007,2470.474,2021-6-12T11:06:15Z
2021-06-12T09:08:05Z,42.805,6.029,13.2988,4.60000,2470.474,2021-6-12T11:09:18Z
2021-06-12T09:11:08Z,42.805,6.029,13.2990,4.59998,2470.474,2021-6-12T11:12:21Z
2021-06-12T09:14:11Z,42.805,6.029,13.2982,4.59996,2470.437,2021-6-12T11:15:24Z
2021-06-12T09:17:14Z,42.805,6.029,13.2986,4.59998,2470.413,2021-6-12T11:18:28Z
2021-06-12T09:20:17Z,42.805,6.029,13.2985,4.59994,2470.46,2021-6-12T11:21:31Z
2021-06-12T09:23:20Z,42.805,6.029,13.2984,4.59997,2470.45,2021-6-12T11:24:34Z
2021-06-12T09:26:24Z,42.805,6.029,13.2986,4.59997,2470.427,2021-6-12T11:27:37Z
2021-06-12T09:29:27Z,42.805,6.029,13.2988,4.60003,2470.45,2021-6-12T11:30:40Z
2021-06-12T09:32:30Z,42.805,6.029,13.2986,4.59997,2470.45,2021-6-12T11:33:43Z
2021-06-12T09:35:33Z,42.805,6.029,13.2984,4.59996,2470.437,2021-6-12T11:36:46Z
2021-06-12T09:38:36Z,42.805,6.029,13.2986,4.59999,2470.45,2021-6-12T11:39:49Z
2021-06-12T09:41:39Z,42.805,6.029,13.2986,4.59997,2470.437,2021-6-12T11:42:53Z
2021-06-12T09:44:42Z,42.805,6.029,13.2988,4.59996,2470.45,2021-6-12T11:45:56Z
2021-06-12T09:47:46Z,42.805,6.029,13.2985,4.59995,2470.437,2021-6-12T11:48:59Z
2021-06-12T09:50:49Z,42.805,6.029,13.2986,4.59996,2470.413,2021-6-12T11:52:02Z
2021-06-12T09:53:52Z,42.805,6.029,13.2987,4.59994,2470.45,2021-6-12T11:55:05Z
2021-06-12T09:56:55Z,42.805,6.029,13.2985,4.59994,2470.413,2021-6-12T11:58:08Z
2021-06-12T09:59:58Z,42.805,6.029,13.2983,4.59996,2470.413,2021-6-12T12:01:11Z
2021-06-12T10:03:01Z,42.805,6.029,13.2985,4.59994,2470.427,2021-6-12T12:04:14Z
2021-06-12T10:06:04Z,42.805,6.029,13.2985,4.59995,2470.413,2021-6-12T12:07:18Z
2021-06-12T10:09:07Z,42.805,6.029,13.2985,4.59993,2470.413,2021-6-12T12:10:21Z
2021-06-12T10:12:11Z,42.805,6.029,13.2983,4.59992,2470.427,2021-6-12T12:13:24Z
2021-06-12T10:15:14Z,42.805,6.029,13.2987,4.59996,2470.45,2021-6-12T12:16:27Z
2021-06-12T10:18:17Z,42.805,6.029,13.2990,4.59997,2470.413,2021-6-12T12:19:30Z
2021-06-12T10:21:20Z,42.805,6.029,13.2986,4.59994,2470.413,2021-6-12T12:22:33Z
2021-06-12T10:24:23Z,42.805,6.029,13.2987,4.59994,2470.413,2021-6-12T12:25:36Z
2021-06-12T10:27:26Z,42.805,6.029,13.2988,4.59992,2470.39,2021-6-12T12:28:39Z
2021-06-12T10:30:29Z,42.805,6.029,13.2983,4.59993,2470.366,2021-6-12T12:31:43Z
2021-06-12T10:33:32Z,42.805,6.029,13.2984,4.59996,2470.404,2021-6-12T12:34:46Z
2021-06-12T10:36:36Z,42.805,6.029,13.2987,4.59999,2470.39,2021-6-12T12:37:49Z
2021-06-12T10:39:39Z,42.805,6.029,13.2980,4.59993,2470.38,2021-6-12T12:40:52Z
2021-06-12T10:42:42Z,42.805,6.029,13.2986,4.59992,2470.38,2021-6-12T12:43:55Z
2021-06-12T10:45:45Z,42.805,6.029,13.2983,4.59993,2470.366,2021-6-12T12:46:58Z
2021-06-12T10:48:48Z,42.805,6.029,13.2984,4.59996,2470.39,2021-6-12T12:50:01Z
2021-06-12T10:51:51Z,42.805,6.029,13.2989,4.59994,2470.38,2021-6-12T12:53:05Z
2021-06-12T10:54:54Z,42.805,6.029,13.2983,4.60007,2470.39,2021-6-12T12:56:08Z
2021-06-12T10:57:57Z,42.805,6.029,13.2983,4.59995,2470.39,2021-6-12T12:59:11Z
2021-06-12T11:01:01Z,42.805,6.029,13.2984,4.59996,2470.38,2021-6-12T13:02:14Z
2021-06-12T11:04:04Z,42.805,6.029,13.2986,4.59999,2470.366,2021-6-12T13:05:17Z
2021-06-12T11:07:07Z,42.805,6.029,13.2983,4.59994,2470.38,2021-6-12T13:08:20Z
2021-06-12T11:10:10Z,42.805,6.029,13.2987,4.59994,2470.343,2021-6-12T13:11:23Z
2021-06-12T11:13:13Z,42.805,6.029,13.2986,4.59996,2470.343,2021-6-12T13:14:26Z
2021-06-12T11:16:16Z,42.805,6.029,13.2984,4.59996,2470.357,2021-6-12T13:17:30Z
2021-06-12T11:19:19Z,42.805,6.029,13.2986,4.59995,2470.32,2021-6-12T13:20:33Z
2021-06-12T11:22:23Z,42.805,6.029,13.2983,4.59996,2470.38,2021-6-12T13:23:36Z
2021-06-12T11:25:26Z,42.805,6.029,13.2988,4.59994,2470.32,2021-6-12T13:26:39Z
2021-06-12T11:28:29Z,42.805,6.029,13.2986,4.60001,2470.334,2021-6-12T13:29:42Z
2021-06-12T11:31:32Z,42.805,6.029,13.2991,4.59995,2470.334,2021-6-12T13:32:45Z
2021-06-12T11:34:35Z,42.805,6.029,13.2987,4.59994,2470.357,2021-6-12T13:35:48Z
2021-06-12T11:37:38Z,42.805,6.029,13.2983,4.59997,2470.32,2021-6-12T13:38:51Z
2021-06-12T11:40:41Z,42.805,6.029,13.2986,4.59996,2470.343,2021-6-12T13:41:55Z
2021-06-12T11:43:44Z,42.805,6.029,13.2986,4.60001,2470.343,2021-6-12T13:44:58Z
2021-06-12T11:46:48Z,42.805,6.029,13.2989,4.59997,2470.357,2021-6-12T13:48:01Z
2021-06-12T11:49:51Z,42.805,6.029,13.2986,4.59994,2470.32,2021-6-12T13:51:04Z
2021-06-12T11:52:54Z,42.805,6.029,13.2990,4.59993,2470.343,2021-6-12T13:54:07Z
2021-06-12T11:55:57Z,42.805,6.029,13.2991,4.59995,2470.32,2021-6-12T13:57:10Z
2021-06-12T11:59:00Z,42.805,6.029,13.2987,4.59995,2470.297,2021-6-12T14:00:13Z
2021-06-12T12:02:03Z,42.805,6.029,13.2986,4.59996,2470.357,2021-6-12T14:03:16Z
2021-06-12T12:05:06Z,42.805,6.029,13.2982,4.59997,2470.32,2021-6-12T14:06:20Z
2021-06-12T12:08:09Z,42.805,6.029,13.2985,4.59997,2470.32,2021-6-12T14:09:23Z
2021-06-12T12:11:13Z,42.805,6.029,13.2989,4.59995,2470.297,2021-6-12T14:12:26Z
2021-06-12T12:14:16Z,42.805,6.029,13.2983,4.59996,2470.334,2021-6-12T14:15:29Z
2021-06-12T12:17:19Z,42.805,6.029,13.2985,4.59993,2470.31,2021-6-12T14:18:32Z
2021-06-12T12:20:22Z,42.805,6.029,13.2987,4.59996,2470.273,2021-6-12T14:21:35Z
2021-06-12T12:23:25Z,42.805,6.029,13.2986,4.59994,2470.297,2021-6-12T14:24:38Z
2021-06-12T12:26:28Z,42.805,6.029,13.2984,4.59995,2470.32,2021-6-12T14:27:41Z
2021-06-12T12:29:31Z,42.805,6.029,13.2984,4.59992,2470.297,2021-6-12T14:30:45Z
2021-06-12T12:32:34Z,42.805,6.029,13.2986,4.59994,2470.297,2021-6-12T14:33:48Z
2021-06-12T12:35:38Z,42.805,6.029,13.2983,4.59993,2470.306,2021-6-12T14:36:51Z
2021-06-12T12:38:41Z,42.805,6.029,13.2986,4.59999,2470.31,2021-6-12T14:39:54Z
2021-06-12T12:41:44Z,42.805,6.029,13.2989,4.59994,2470.32,2021-6-12T14:42:57Z
2021-06-12T12:44:47Z,42.805,6.029,13.2982,4.59993,2470.334,2021-6-12T14:46:00Z
2021-06-12T12:47:50Z,42.805,6.029,13.2982,4.59994,2470.297,2021-6-12T14:49:03Z
2021-06-12T12:50:53Z,42.805,6.029,13.2989,4.59992,2470.273,2021-6-12T14:52:06Z
2021-06-12T12:53:56Z,42.805,6.029,13.2985,4.59996,2470.297,2021-6-12T14:55:10Z
2021-06-12T12:56:59Z,42.805,6.029,13.2984,4.59994,2470.273,2021-6-12T14:58:13Z
2021-06-12T13:00:03Z,42.805,6.029,13.2986,4.59994,2470.297,2021-6-12T15:01:16Z
2021-06-12T13:03:06Z,42.805,6.029,13.2986,4.59996,2470.287,2021-6-12T15:04:19Z
2021-06-12T13:06:09Z,42.805,6.029,13.2984,4.59994,2470.287,2021-6-12T15:07:22Z
2021-06-12T13:09:12Z,42.805,6.029,13.2984,4.59993,2470.273,2021-6-12T15:10:25Z
2021-06-12T13:12:15Z,42.805,6.029,13.2982,4.59993,2470.297,2021-6-12T15:13:28Z
2021-06-12T13:15:18Z,42.805,6.029,13.2983,4.59994,2470.287,2021-6-12T15:16:31Z
2021-06-12T13:18:21Z,42.805,6.029,13.2987,4.59993,2470.297,2021-6-12T15:19:35Z
2021-06-12T13:21:24Z,42.805,6.029,13.2985,4.59992,2470.297,2021-6-12T15:22:38Z
2021-06-12T13:24:28Z,42.805,6.029,13.2986,4.59991,2470.287,2021-6-12T15:25:41Z
2021-06-12T13:27:31Z,42.805,6.029,13.2991,4.59992,2470.273,2021-6-12T15:28:44Z
2021-06-12T13:30:34Z,42.805,6.029,13.2983,4.59994,2470.31,2021-6-12T15:31:47Z
2021-06-12T13:33:37Z,42.805,6.029,13.2983,4.59995,2470.273,2021-6-12T15:34:50Z
2021-06-12T13:36:40Z,42.805,6.029,13.2983,4.59996,2470.297,2021-6-12T15:37:53Z
2021-06-12T13:39:43Z,42.805,6.029,13.2982,4.59994,2470.32,2021-6-12T15:40:57Z
2021-06-12T13:42:46Z,42.805,6.029,13.2987,4.59994,2470.31,2021-6-12T15:44:00Z
2021-06-12T13:45:49Z,42.805,6.029,13.2986,4.59997,2470.297,2021-6-12T15:47:03Z
2021-06-12T13:48:53Z,42.805,6.029,13.2986,4.59995,2470.31,2021-6-12T15:50:06Z
2021-06-12T13:51:56Z,42.805,6.029,13.2987,4.59993,2470.31,2021-6-12T15:53:09Z
2021-06-12T13:54:59Z,42.805,6.029,13.2986,4.59993,2470.297,2021-6-12T15:56:12Z
2021-06-12T13:58:02Z,42.805,6.029,13.2983,4.59995,2470.297,2021-6-12T15:59:15Z
2021-06-12T14:01:05Z,42.805,6.029,13.2985,4.59992,2470.31,2021-6-12T16:02:18Z
2021-06-12T14:04:08Z,42.805,6.029,13.2986,4.59994,2470.273,2021-6-12T16:05:22Z
2021-06-12T14:07:11Z,42.805,6.029,13.2986,4.59994,2470.287,2021-6-12T16:08:25Z
2021-06-12T14:10:15Z,42.805,6.029,13.2986,4.59992,2470.273,2021-6-12T16:11:28Z
2021-06-12T14:13:18Z,42.805,6.029,13.2984,4.59991,2470.297,2021-6-12T16:14:31Z
2021-06-12T14:16:21Z,42.805,6.029,13.2985,4.59993,2470.31,2021-6-12T16:17:34Z
2021-06-12T14:19:24Z,42.805,6.029,13.2985,4.59991,2470.31,2021-6-12T16:20:37Z
2021-06-12T14:22:27Z,42.805,6.029,13.2989,4.59997,2470.297,2021-6-12T16:23:40Z
2021-06-12T14:25:30Z,42.805,6.029,13.2988,4.59992,2470.273,2021-6-12T16:26:43Z
2021-06-12T14:28:33Z,42.805,6.029,13.2980,4.59994,2470.273,2021-6-12T16:29:47Z
2021-06-12T14:31:36Z,42.805,6.029,13.2983,4.59991,2470.32,2021-6-12T16:32:50Z
2021-06-12T14:34:39Z,42.805,6.029,13.2987,4.59993,2470.31,2021-6-12T16:35:53Z
2021-06-12T14:37:43Z,42.805,6.029,13.2987,4.59993,2470.297,2021-6-12T16:38:56Z
2021-06-12T14:40:46Z,42.805,6.029,13.2987,4.59994,2470.297,2021-6-12T16:41:59Z
2021-06-12T14:43:49Z,42.805,6.029,13.2986,4.59993,2470.273,2021-6-12T16:45:02Z
2021-06-12T14:46:52Z,42.805,6.029,13.2989,4.59994,2470.334,2021-6-12T16:48:05Z
2021-06-12T14:49:55Z,42.805,6.029,13.2987,4.59992,2470.334,2021-6-12T16:51:08Z
2021-06-12T14:52:58Z,42.805,6.029,13.2993,4.60001,2470.273,2021-6-12T16:54:12Z
2021-06-12T14:56:01Z,42.805,6.029,13.2991,4.59994,2470.32,2021-6-12T16:57:15Z
2021-06-12T14:59:05Z,42.805,6.029,13.2986,4.59995,2470.334,2021-6-12T17:00:18Z
2021-06-12T15:02:08Z,42.805,6.029,13.2989,4.59998,2470.334,2021-6-12T17:03:21Z
2021-06-12T15:05:11Z,42.805,6.029,13.2983,4.59993,2470.297,2021-6-12T17:06:24Z
2021-06-12T15:08:14Z,42.805,6.029,13.2993,4.59994,2470.334,2021-6-12T17:09:27Z
2021-06-12T15:11:17Z,42.805,6.029,13.2986,4.59995,2470.297,2021-6-12T17:12:30Z
2021-06-12T15:14:20Z,42.805,6.029,13.2989,4.60001,2470.343,2021-6-12T17:15:33Z